BDA3MD FEFF-FKKD

Flight info

Callsign BDA3MD
Flight time 1h 18m
Altitude 38000
Route FF022 DCT VOTUR DCT TOBAB DCT KOGAN DCT ARKEV DCT LILIK DCT EDEBA EDEBA1D
Aircraft B752/M-SDE3FGHIM3RWXY/LB1

Departure

Time 2026-04-13 15:33
Airport Bangui M'Poko International Airport (FEFF)

Arrival

Time 2026-04-13 16:51
Airport Douala International Airport (FKKD)
Time Latitude Longitude Altitude Speed Heading
2026-04-13 14:55 4.39730 18.52369 1216 ft 0 kts 76°
2026-04-13 15:22 4.39728 18.52360 1215 ft 2 kts 75°
2026-04-13 15:22 4.39724 18.52345 1215 ft 2 kts 76°
2026-04-13 15:22 4.39720 18.52332 1214 ft 2 kts 76°
2026-04-13 15:22 4.39718 18.52322 1214 ft 1 kts 76°
2026-04-13 15:23 4.39711 18.52309 1214 ft 2 kts 34°
2026-04-13 15:23 4.39696 18.52305 1213 ft 1 kts 354°
2026-04-13 15:23 4.39690 18.52306 1213 ft 1 kts 343°
2026-04-13 15:23 4.39688 18.52307 1213 ft 0 kts 346°
2026-04-13 15:25 4.39689 18.52307 1213 ft 1 kts 346°
2026-04-13 15:26 4.39706 18.52303 1214 ft 3 kts 346°
2026-04-13 15:26 4.39733 18.52296 1214 ft 4 kts 346°
2026-04-13 15:26 4.39766 18.52288 1215 ft 4 kts 346°
2026-04-13 15:26 4.39796 18.52280 1216 ft 4 kts 341°
2026-04-13 15:27 4.39824 18.52257 1216 ft 7 kts 300°
2026-04-13 15:27 4.39826 18.52190 1214 ft 11 kts 265°
2026-04-13 15:27 4.39803 18.52102 1209 ft 14 kts 254°
2026-04-13 15:27 4.39794 18.52004 1207 ft 13 kts 293°
2026-04-13 15:28 4.39861 18.51953 1209 ft 11 kts 339°
2026-04-13 15:28 4.39940 18.51929 1211 ft 11 kts 344°
2026-04-13 15:28 4.40019 18.51907 1212 ft 11 kts 345°
2026-04-13 15:28 4.40099 18.51886 1214 ft 11 kts 345°
2026-04-13 15:29 4.40188 18.51863 1216 ft 14 kts 346°
2026-04-13 15:29 4.40286 18.51839 1217 ft 13 kts 346°
2026-04-13 15:29 4.40377 18.51817 1217 ft 13 kts 346°
2026-04-13 15:29 4.40463 18.51795 1217 ft 12 kts 346°
2026-04-13 15:30 4.40547 18.51774 1217 ft 12 kts 346°
2026-04-13 15:30 4.40631 18.51753 1216 ft 12 kts 346°
2026-04-13 15:30 4.40712 18.51732 1216 ft 11 kts 345°
2026-04-13 15:30 4.40787 18.51713 1217 ft 10 kts 345°
2026-04-13 15:31 4.40852 18.51695 1218 ft 8 kts 345°
2026-04-13 15:31 4.40903 18.51682 1219 ft 6 kts 345°
2026-04-13 15:31 4.40945 18.51672 1220 ft 6 kts 347°
2026-04-13 15:31 4.40991 18.51667 1221 ft 7 kts
2026-04-13 15:32 4.41037 18.51684 1223 ft 6 kts 14°
2026-04-13 15:32 4.41065 18.51674 1224 ft 3 kts 301°
2026-04-13 15:32 4.41062 18.51652 1223 ft 3 kts 229°
2026-04-13 15:32 4.41036 18.51647 1223 ft 5 kts 172°
2026-04-13 15:33 4.40865 18.51689 1219 ft 66 kts 165°
2026-04-13 15:33 4.40100 18.51885 1215 ft 156 kts 167°
2026-04-13 15:33 4.38924 18.52161 1843 ft 181 kts 169°
2026-04-13 15:34 4.36609 18.51059 3127 ft 222 kts 242°
2026-04-13 15:34 4.36254 18.49510 3662 ft 241 kts 275°
2026-04-13 15:34 4.36748 18.47857 4227 ft 258 kts 295°
2026-04-13 15:34 4.37383 18.46082 4839 ft 278 kts 288°
2026-04-13 15:35 4.37904 18.44167 5486 ft 294 kts 285°
2026-04-13 15:35 4.38381 18.42160 6362 ft 300 kts 284°
2026-04-13 15:35 4.38826 18.40131 7315 ft 302 kts 284°
2026-04-13 15:35 4.39229 18.38206 8154 ft 306 kts 283°
2026-04-13 15:36 4.39657 18.36105 9044 ft 311 kts 283°
2026-04-13 15:36 4.40083 18.33985 9977 ft 314 kts 283°
2026-04-13 15:36 4.40518 18.31807 10509 ft 333 kts 283°
2026-04-13 15:36 4.40987 18.29443 10942 ft 353 kts 283°
2026-04-13 15:37 4.41480 18.26945 11326 ft 374 kts 283°
2026-04-13 15:37 4.41997 18.24322 11762 ft 390 kts 283°
2026-04-13 15:37 4.42524 18.21640 12519 ft 395 kts 283°
2026-04-13 15:37 4.43056 18.18931 13189 ft 402 kts 283°
2026-04-13 15:38 4.43601 18.16162 13986 ft 404 kts 282°
2026-04-13 15:38 4.44146 18.13393 14647 ft 410 kts 282°
2026-04-13 15:38 4.44513 18.10519 15309 ft 415 kts 271°
2026-04-13 15:38 4.44243 18.07629 15955 ft 420 kts 261°
2026-04-13 15:39 4.43803 18.04694 16616 ft 424 kts 261°
2026-04-13 15:39 4.43368 18.01759 17194 ft 429 kts 261°
2026-04-13 15:39 4.42925 17.98797 17903 ft 431 kts 261°
2026-04-13 15:39 4.42479 17.95819 18490 ft 436 kts 261°
2026-04-13 15:40 4.42023 17.92776 19181 ft 438 kts 262°
2026-04-13 15:40 4.41571 17.89770 19799 ft 442 kts 262°
2026-04-13 15:40 4.41111 17.86709 20402 ft 445 kts 262°
2026-04-13 15:40 4.40645 17.83607 21017 ft 448 kts 262°
2026-04-13 15:41 4.40177 17.80495 21646 ft 450 kts 262°
2026-04-13 15:41 4.39708 17.77378 22227 ft 453 kts 263°
2026-04-13 15:41 4.39241 17.74267 22757 ft 456 kts 263°
2026-04-13 15:41 4.38762 17.71087 23378 ft 458 kts 263°
2026-04-13 15:42 4.38287 17.67930 23927 ft 460 kts 263°
2026-04-13 15:42 4.37809 17.64756 24434 ft 463 kts 263°
2026-04-13 15:42 4.37332 17.61584 25021 ft 463 kts 263°
2026-04-13 15:42 4.36844 17.58343 25570 ft 465 kts 263°
2026-04-13 15:43 4.36360 17.55138 26108 ft 466 kts 263°
2026-04-13 15:43 4.35875 17.51920 26579 ft 469 kts 263°
2026-04-13 15:43 4.35385 17.48668 27094 ft 471 kts 263°
2026-04-13 15:43 4.34893 17.45407 27534 ft 474 kts 263°
2026-04-13 15:44 4.34405 17.42169 28009 ft 475 kts 263°
2026-04-13 15:44 4.33943 17.39110 28446 ft 477 kts 263°
2026-04-13 15:44 4.33444 17.35809 28838 ft 481 kts 263°
2026-04-13 15:44 4.32939 17.32457 29204 ft 484 kts 263°
2026-04-13 15:45 4.32439 17.29155 29603 ft 487 kts 263°
2026-04-13 15:45 4.31927 17.25769 30064 ft 488 kts 264°
2026-04-13 15:45 4.31426 17.22458 30602 ft 486 kts 264°
2026-04-13 15:45 4.30923 17.19130 31163 ft 484 kts 264°
2026-04-13 15:46 4.30423 17.15804 31818 ft 480 kts 265°
2026-04-13 15:46 4.30113 17.12474 32215 ft 479 kts 270°
2026-04-13 15:46 4.29920 17.09137 32731 ft 478 kts 269°
2026-04-13 15:46 4.29708 17.05833 33273 ft 477 kts 269°
2026-04-13 15:47 4.29489 17.02504 33823 ft 476 kts 269°
2026-04-13 15:47 4.29269 16.99217 34411 ft 473 kts 269°
2026-04-13 15:47 4.29045 16.95911 34981 ft 470 kts 268°
2026-04-13 15:47 4.28826 16.92688 35455 ft 469 kts 268°
2026-04-13 15:48 4.28602 16.89426 35874 ft 468 kts 268°
2026-04-13 15:48 4.28396 16.86430 36271 ft 467 kts 268°
2026-04-13 15:48 4.28171 16.83171 36630 ft 468 kts 268°
2026-04-13 15:48 4.27946 16.79909 37005 ft 467 kts 268°
2026-04-13 15:49 4.27723 16.76682 37357 ft 467 kts 268°
2026-04-13 15:49 4.27500 16.73450 37668 ft 467 kts 268°
2026-04-13 15:49 4.27274 16.70185 37828 ft 465 kts 268°
2026-04-13 15:49 4.27050 16.66968 37822 ft 464 kts 268°
2026-04-13 15:50 4.26602 16.60498 37828 ft 466 kts 268°
2026-04-13 15:50 4.26151 16.54008 37828 ft 465 kts 268°
2026-04-13 15:51 4.25704 16.47561 37831 ft 465 kts 268°
2026-04-13 15:51 4.25252 16.41072 37819 ft 466 kts 268°
2026-04-13 15:52 4.24803 16.34636 37809 ft 466 kts 268°
2026-04-13 15:52 4.24351 16.28145 37803 ft 467 kts 268°
2026-04-13 15:53 4.23911 16.21844 37799 ft 466 kts 268°
2026-04-13 15:53 4.23458 16.15368 37797 ft 466 kts 268°
2026-04-13 15:54 4.23005 16.08899 37800 ft 467 kts 267°
2026-04-13 15:54 4.22550 16.02409 37802 ft 467 kts 267°
2026-04-13 15:55 4.22095 15.95924 37805 ft 468 kts 267°
2026-04-13 15:55 4.21637 15.89405 37824 ft 468 kts 267°
2026-04-13 15:56 4.21183 15.82954 37842 ft 467 kts 268°
2026-04-13 15:56 4.20725 15.76453 37844 ft 467 kts 268°
2026-04-13 15:57 4.20283 15.70174 37851 ft 469 kts 268°
2026-04-13 15:57 4.19822 15.63644 37850 ft 468 kts 268°
2026-04-13 15:58 4.19364 15.57167 37847 ft 470 kts 267°
2026-04-13 15:58 4.18899 15.50595 37843 ft 469 kts 267°
2026-04-13 15:59 4.18468 15.44512 37849 ft 469 kts 268°
2026-04-13 15:59 4.18041 15.38486 37850 ft 469 kts 267°
2026-04-13 16:00 4.17543 15.32008 37852 ft 469 kts 265°
2026-04-13 16:00 4.16766 15.25482 37848 ft 471 kts 264°
2026-04-13 16:01 4.15996 15.18937 37843 ft 472 kts 264°
2026-04-13 16:01 4.15259 15.12676 37856 ft 472 kts 265°
2026-04-13 16:02 4.14494 15.06156 37863 ft 472 kts 265°
2026-04-13 16:02 4.13722 14.99587 37868 ft 471 kts 265°
2026-04-13 16:03 4.12960 14.93103 37865 ft 471 kts 265°
2026-04-13 16:03 4.12192 14.86574 37872 ft 472 kts 264°
2026-04-13 16:04 4.11449 14.80262 37872 ft 473 kts 264°
2026-04-13 16:04 4.10685 14.73777 37869 ft 473 kts 264°
2026-04-13 16:05 4.09941 14.67473 37872 ft 474 kts 264°
2026-04-13 16:05 4.09167 14.60907 37870 ft 474 kts 264°
2026-04-13 16:06 4.08413 14.54525 37870 ft 473 kts 264°
2026-04-13 16:06 4.07659 14.48134 37874 ft 474 kts 264°
2026-04-13 16:07 4.06891 14.41642 37875 ft 473 kts 264°
2026-04-13 16:07 4.06125 14.35169 37877 ft 474 kts 264°
2026-04-13 16:08 4.05352 14.28637 37876 ft 474 kts 264°
2026-04-13 16:08 4.04604 14.22329 37874 ft 474 kts 264°
2026-04-13 16:09 4.03829 14.15793 37882 ft 474 kts 264°
2026-04-13 16:09 4.03053 14.09247 37888 ft 475 kts 264°
2026-04-13 16:10 4.02278 14.02715 37891 ft 475 kts 264°
2026-04-13 16:10 4.01492 13.96102 37895 ft 474 kts 264°
2026-04-13 16:11 4.00718 13.89584 37902 ft 474 kts 264°
2026-04-13 16:11 3.99943 13.83076 37906 ft 473 kts 264°
2026-04-13 16:12 3.99164 13.76534 37910 ft 475 kts 264°
2026-04-13 16:12 3.98380 13.69947 37910 ft 475 kts 264°
2026-04-13 16:13 3.97602 13.63412 37910 ft 474 kts 264°
2026-04-13 16:13 3.96816 13.56825 37912 ft 474 kts 264°
2026-04-13 16:14 3.96041 13.50325 37916 ft 474 kts 263°
2026-04-13 16:14 3.95254 13.43742 37923 ft 473 kts 263°
2026-04-13 16:15 3.94469 13.37170 37929 ft 475 kts 264°
2026-04-13 16:15 3.93685 13.30615 37925 ft 474 kts 264°
2026-04-13 16:16 3.92899 13.24049 37925 ft 475 kts 264°
2026-04-13 16:16 3.92112 13.17474 37922 ft 474 kts 264°
2026-04-13 16:17 3.91328 13.10933 37922 ft 474 kts 263°
2026-04-13 16:17 3.90539 13.04350 37920 ft 473 kts 263°
2026-04-13 16:18 3.89753 12.97800 37919 ft 473 kts 263°
2026-04-13 16:18 3.88969 12.91269 37917 ft 474 kts 263°
2026-04-13 16:19 3.88176 12.84669 37917 ft 476 kts 264°
2026-04-13 16:19 3.87383 12.78073 37916 ft 475 kts 263°
2026-04-13 16:20 3.86649 12.71523 37912 ft 473 kts 268°
2026-04-13 16:20 3.86517 12.64920 37917 ft 475 kts 269°
2026-04-13 16:21 3.86407 12.58360 37919 ft 473 kts 269°
2026-04-13 16:21 3.86305 12.51792 37923 ft 470 kts 269°
2026-04-13 16:22 3.86205 12.45275 37923 ft 462 kts 268°
2026-04-13 16:23 3.86055 12.35589 37920 ft 466 kts 268°
2026-04-13 16:23 3.85956 12.29141 37916 ft 466 kts 268°
2026-04-13 16:24 3.85855 12.22643 37911 ft 467 kts 269°
2026-04-13 16:24 3.85754 12.16129 37911 ft 467 kts 268°
2026-04-13 16:25 3.85653 12.09657 37912 ft 465 kts 268°
2026-04-13 16:25 3.85553 12.03264 37910 ft 465 kts 268°
2026-04-13 16:26 3.85452 11.96818 37908 ft 466 kts 268°
2026-04-13 16:26 3.85350 11.90444 37913 ft 466 kts 268°
2026-04-13 16:27 3.85248 11.83971 37906 ft 458 kts 268°
2026-04-13 16:27 3.85199 11.80848 37873 ft 444 kts 268°
2026-04-13 16:27 3.85149 11.77803 37378 ft 439 kts 268°
2026-04-13 16:27 3.85099 11.74715 36432 ft 443 kts 268°
2026-04-13 16:28 3.85049 11.71662 35539 ft 445 kts 269°
2026-04-13 16:28 3.85002 11.68754 34695 ft 447 kts 269°
2026-04-13 16:28 3.84955 11.65874 33741 ft 451 kts 269°
2026-04-13 16:28 3.84905 11.62799 33106 ft 442 kts 269°
2026-04-13 16:29 3.84855 11.59722 32507 ft 442 kts 269°
2026-04-13 16:29 3.84810 11.56885 32022 ft 455 kts 270°
2026-04-13 16:29 3.84759 11.53709 31478 ft 468 kts 270°
2026-04-13 16:29 3.84705 11.50410 30905 ft 473 kts 270°
2026-04-13 16:30 3.84651 11.47147 30341 ft 472 kts 270°
2026-04-13 16:30 3.84597 11.43875 29775 ft 471 kts 270°
2026-04-13 16:30 3.84543 11.40596 29212 ft 473 kts 270°
2026-04-13 16:30 3.84489 11.37331 28654 ft 474 kts 271°
2026-04-13 16:31 3.84436 11.34120 28120 ft 472 kts 271°
2026-04-13 16:31 3.84383 11.30873 27565 ft 467 kts 270°
2026-04-13 16:31 3.84329 11.27622 26996 ft 461 kts 270°
2026-04-13 16:31 3.84278 11.24530 26450 ft 455 kts 270°
2026-04-13 16:32 3.84226 11.21390 25890 ft 451 kts 270°
2026-04-13 16:32 3.84178 11.18547 25380 ft 449 kts 270°
2026-04-13 16:32 3.84126 11.15378 24803 ft 446 kts 270°
2026-04-13 16:32 3.84074 11.12317 24238 ft 441 kts 270°
2026-04-13 16:33 3.84025 11.09409 23696 ft 437 kts 270°
2026-04-13 16:33 3.83973 11.06324 23124 ft 433 kts 270°
2026-04-13 16:33 3.83923 11.03322 22557 ft 429 kts 270°
2026-04-13 16:33 3.83873 11.00396 22008 ft 426 kts 270°
2026-04-13 16:34 3.83823 10.97419 21448 ft 424 kts 270°
2026-04-13 16:34 3.83774 10.94488 20887 ft 424 kts 270°
2026-04-13 16:34 3.83725 10.91622 20332 ft 423 kts 269°
2026-04-13 16:34 3.83675 10.88671 19747 ft 421 kts 269°
2026-04-13 16:35 3.83624 10.85739 19161 ft 418 kts 269°
2026-04-13 16:35 3.83579 10.82868 18591 ft 417 kts 270°
2026-04-13 16:35 3.83830 10.79976 18022 ft 413 kts 279°
2026-04-13 16:35 3.84248 10.77150 17526 ft 410 kts 279°
2026-04-13 16:36 3.84649 10.74374 17042 ft 411 kts 279°
2026-04-13 16:36 3.85067 10.71519 16538 ft 409 kts 279°
2026-04-13 16:36 3.85476 10.68744 16038 ft 405 kts 279°
2026-04-13 16:36 3.85860 10.66139 15566 ft 402 kts 280°
2026-04-13 16:37 3.86279 10.63303 15047 ft 399 kts 280°
2026-04-13 16:37 3.86688 10.60537 14526 ft 396 kts 280°
2026-04-13 16:37 3.87081 10.57871 14016 ft 393 kts 280°
2026-04-13 16:37 3.87482 10.55162 13495 ft 390 kts 281°
2026-04-13 16:38 3.87879 10.52479 12977 ft 388 kts 281°
2026-04-13 16:38 3.88255 10.49939 12475 ft 386 kts 280°
2026-04-13 16:38 3.88645 10.47298 11970 ft 381 kts 281°
2026-04-13 16:38 3.89029 10.44693 11458 ft 376 kts 281°
2026-04-13 16:39 3.89397 10.42206 10994 ft 374 kts 281°
2026-04-13 16:39 3.89777 10.39640 10491 ft 371 kts 281°
2026-04-13 16:39 3.90151 10.37104 10044 ft 364 kts 281°
2026-04-13 16:39 3.90501 10.34718 9977 ft 346 kts 281°
2026-04-13 16:40 3.90840 10.32415 9937 ft 329 kts 281°
2026-04-13 16:40 3.91166 10.30206 9860 ft 312 kts 281°
2026-04-13 16:40 3.91467 10.28162 9636 ft 301 kts 281°
2026-04-13 16:40 3.91747 10.26281 9419 ft 303 kts 281°
2026-04-13 16:41 3.92057 10.24189 9147 ft 307 kts 281°
2026-04-13 16:41 3.92354 10.22175 8881 ft 304 kts 281°
2026-04-13 16:41 3.92632 10.20293 8572 ft 303 kts 281°
2026-04-13 16:42 3.93186 10.16534 7954 ft 295 kts 280°
2026-04-13 16:42 3.93515 10.14301 7570 ft 294 kts 280°
2026-04-13 16:42 3.93810 10.12303 7221 ft 290 kts 280°
2026-04-13 16:42 3.94106 10.10294 6905 ft 287 kts 279°
2026-04-13 16:43 3.94374 10.08469 6586 ft 287 kts 280°
2026-04-13 16:43 3.94665 10.06497 6225 ft 284 kts 279°
2026-04-13 16:43 3.94951 10.04554 5855 ft 280 kts 279°
2026-04-13 16:43 3.95230 10.02657 5474 ft 277 kts 279°
2026-04-13 16:44 3.95266 10.00746 5104 ft 274 kts 257°
2026-04-13 16:44 3.94629 9.98964 4768 ft 273 kts 246°
2026-04-13 16:44 3.93911 9.97253 4403 ft 271 kts 247°
2026-04-13 16:44 3.93191 9.95555 4351 ft 257 kts 246°
2026-04-13 16:45 3.92542 9.94047 4344 ft 243 kts 246°
2026-04-13 16:45 3.91882 9.92522 4214 ft 236 kts 246°
2026-04-13 16:45 3.91437 9.90969 3943 ft 235 kts 264°
2026-04-13 16:45 3.91661 9.89382 3639 ft 233 kts 296°
2026-04-13 16:46 3.92420 9.87962 3305 ft 227 kts 298°
2026-04-13 16:46 3.93127 9.86598 2980 ft 211 kts 296°
2026-04-13 16:46 3.93766 9.85336 2721 ft 194 kts 296°
2026-04-13 16:46 3.94343 9.84205 2458 ft 181 kts 295°
2026-04-13 16:47 3.94884 9.83143 2224 ft 185 kts 295°
2026-04-13 16:47 3.95454 9.82028 1976 ft 172 kts 295°
2026-04-13 16:47 3.95964 9.81031 1758 ft 153 kts 295°
2026-04-13 16:47 3.96427 9.80127 1519 ft 138 kts 295°
2026-04-13 16:48 3.96860 9.79312 1248 ft 131 kts 297°
2026-04-13 16:48 3.97312 9.78541 997 ft 128 kts 297°
2026-04-13 16:48 3.97745 9.77775 876 ft 129 kts 297°
2026-04-13 16:48 3.98163 9.76963 798 ft 131 kts 294°
2026-04-13 16:49 3.98540 9.76132 698 ft 131 kts 293°
2026-04-13 16:49 3.98918 9.75299 537 ft 131 kts 296°
2026-04-13 16:49 3.99323 9.74489 347 ft 130 kts 298°
2026-04-13 16:49 3.99740 9.73686 171 ft 128 kts 298°
2026-04-13 16:50 4.00135 9.72897 43 ft 129 kts 300°
2026-04-13 16:50 4.00553 9.72104 44 ft 128 kts 298°
2026-04-13 16:50 4.00993 9.71341 209 ft 128 kts 301°
2026-04-13 16:50 4.01520 9.70564 396 ft 140 kts 299°
2026-04-13 16:51 4.01989 9.69704 242 ft 140 kts 296°
2026-04-13 16:51 4.02442 9.68850 50 ft 135 kts 296°
2026-04-13 16:51 4.02779 9.68230 24 ft 47 kts 309°
2026-04-13 16:51 4.02820 9.68175 24 ft 0 kts 320°
2026-04-13 16:52 4.02820 9.68174 24 ft 0 kts 320°
2026-04-13 16:52 4.02821 9.68173 24 ft 0 kts 319°
2026-04-13 16:52 4.02822 9.68172 24 ft 0 kts 320°
2026-04-13 16:52 4.02823 9.68172 24 ft 0 kts 319°